Welcome to the New NWS' Forecast!
Most changes are behind the scenes, but click here for differences you might notice.

Regional Weather Roundup (RWR)

Issued by National Weather Service (NWS)

                            
139 
ASUS42 KTBW 221417
RWRFL 
FLORIDA REGIONAL WEATHER ROUNDUP
NATIONAL WEATHER SERVICE TAMPA BAY RUSKIN FL
1000 AM EDT SAT SEP 22 2018

NOTE: "FAIR" INDICATES FEW OR NO CLOUDS BELOW 12,000 FEET WITH NO
SIGNIFICANT WEATHER AND/OR OBSTRUCTIONS TO VISIBILITY.

FLZ001>010-012>015-112-114-115-221500-
PANHANDLE FLORIDA
  
CITY           SKY/WX    TMP DP  RH WIND       PRES   REMARKS
PENSACOLA      FAIR      81  75  82 E8        30.03S                  
MILTON NAS     FAIR      79  77  94 E5        30.05                   
CRESTVIEW      FAIR      79  73  82 VRB3      30.07R                  
PANAMA CITY    FAIR      81  73  76 N5        30.05R                  
APALACHICOLA   FAIR      82  78  88 E8        30.04R                  

STATION/POSITION SKY/WX   TEMP    WIND        PRES    WAVE   SWELL
                          AIR SEA DIR/SP/G            HT/PER HT/PER
                          (F)     (DEG/KT/KT) (MB)    (FT/S) (FT/S)
30.1N   87.6W              85     120/ 10/ 12 1016.9
29.2N   88.2W                 87  140/ 10/ 12 1016.5R   2/ 6   2/ 6
28.8N   86.0W              83 86   80/ 10/ 12   N/A     2/ 4   2/ 6
PANAMA CITY BEAC           79 86   50/  6/  8 1017.9R
TOWER C                    83      80/  8/  9 1017.9R

$$
FLZ011-016>038-118-127-128-134-139-239-221500-
NORTH FLORIDA
  
CITY           SKY/WX    TMP DP  RH WIND       PRES   REMARKS
MARIANNA       FAIR      80  74  81 VRB5      30.06S                  
TALLAHASSEE    FAIR      81  73  76 SE9       30.07S                  
PERRY          FAIR      81  74  78 E6        30.08S                  
LIVE OAK       SUNNY     79  73  83 NE7       30.08S                  
CROSS CITY     FAIR      81  74  78 E6        30.07S                  
LAKE CITY      FAIR      79  72  78 NE3       30.09S                  
GAINESVILLE    FAIR      83  73  72 VRB7      30.10S                  
PALATKA        FAIR      82  75  78 E7        30.08S                  
MAYPORT NAS    FAIR      85  73  67 NE6       30.08R                  
JACKSONVILLE   FAIR      82  72  71 NE6       30.08R                  
JAX NAS        FAIR      83  74  74 N6        30.09R                  
JAX CECIL      SUNNY     86  73  66 VRB5      30.08S                  
ST AUGUSTINE   PTSUNNY   84  72  67 E10       30.08S                  
PALM COAST     MOSUNNY   84  72  65 E7        30.07S                  

STATION/POSITION SKY/WX   TEMP    WIND        PRES    WAVE   SWELL
                          AIR SEA DIR/SP/G            HT/PER HT/PER
                          (F)     (DEG/KT/KT) (MB)    (FT/S) (FT/S)
SHELL POINT      NOT AVBL
KEATON BEACH               80      90/  9/ 10 1018.2F
CEDAR KEY                  80      80/  9/ 10 1018.6R
FERNANDINA                 82 85  340/  3/  5 1019.4R
30.7N   81.3W                 85                N/A     2/10
MAYPORT                    82 85   70/  5/  7 1018.9R
31.4N   80.9W              82 84   70/  6/ 10 1018.7R   3/ 9   2/ 9
ST AUGUSTINE               83 83   80/  9/ 11 1018.7R

$$
FLZ040-043>046-052-053-057-058-063-144-221500-
INTERIOR CENTRAL FLORIDA
  
CITY           SKY/WX    TMP DP  RH WIND       PRES   REMARKS
OCALA          FAIR      81  74  79 NE5       30.08R                  
LEESBURG       FAIR      84  75  74 NE10      30.08R                  
SANFORD        CLOUDY    77  73  87 NE9       30.06S                  
ORLANDO EXEC   FAIR      81  75  82 NE8       30.07R                  
ORLANDO INTL   FAIR      82  75  79 NE10      30.06S                  
KISSIMMEE      FAIR      83  73  72 NE9       30.07R                  
WINTER HAVEN   FAIR      85  74  69 NE10      30.06S                  
LAKELAND       MOSUNNY   82  73  74 NE8       30.05F                  
SEBRING        FAIR      85  73  67 NE9       30.03S                  
OKEECHOBEE     FAIR      81  73  78 NE3       30.02S                  

$$
FLZ041-047-054-059-064-141-147-221500-
EAST CENTRAL FLORIDA
  
CITY           SKY/WX    TMP DP  RH WIND       PRES   REMARKS
ORMOND BEACH   MOSUNNY   81  75  83 CALM      30.07S                  
DAYTONA BEACH  LGT RAIN  76  74  93 SE3       30.07R                  
DELAND         CLOUDY    79  73  83 E6        30.07S                  
NEW SMYRNA BEA LGT RAIN  75  73  94 CALM      30.08S                  
TITUSVILLE     PTSUNNY   82  81  94 N9        30.07R HX  95           
MELBOURNE      CLOUDY    82  72  71 NE12      30.05R                  
VERO BEACH     HVY RAIN  77  75  93 NE13      30.04R FOG              
FT PIERCE      FAIR      82  76  81 VRB7      30.03R                  
STUART         MOSUNNY   84  75  74 CALM      30.03S                  

STATION/POSITION SKY/WX   TEMP    WIND        PRES    WAVE   SWELL
                          AIR SEA DIR/SP/G            HT/PER HT/PER
                          (F)     (DEG/KT/KT) (MB)    (FT/S) (FT/S)
28.5N   80.2W              83      70/ 10/ 14 1018.1R   3/10   3/10
28.9N   78.5W              83 85   70/ 10/ 14 1018.3R
TRIDENT PIER               82 86   60/  7/ 10 1019.4R
28.4N   80.5W                 85                N/A     3/11   2/11
27.5N   80.2W                 83                N/A     4/11   2/11

$$
FLZ050-056-061-142-242-148-248-149-249-151-251-155-255-
160-260-221500-
WEST CENTRAL FLORIDA
  
CITY           SKY/WX    TMP DP  RH WIND       PRES   REMARKS
CRYSTAL RIVER  FAIR      81  73  78 E8        30.06S                  
BROOKSVILLE    FAIR      83  74  74 E9        30.06S                  
CLEARWATER AIR FAIR      81  72  74 E6        30.04S                  
ST PETE CLEARW FAIR      82  74  76 NE9       30.04F                  
TAMPA INTL     FAIR      85  73  67 NE6       30.05S                  
TAMPA EXEC     FAIR      82  75  78 NE3       30.06S                  
PLANT CITY     FAIR      84  75  74 NE7       30.07F                  
PETER O KNIGHT FAIR      81  73  78 NE9       30.05S                  
ST PETERSBURG  FAIR      82  75  79 NE9       30.02F                  
SARASOTA       FAIR      82  74  76 E13       30.00F                  
VENICE         FAIR      84  77  79 NE10      30.02S                  

STATION/POSITION SKY/WX   TEMP    WIND        PRES    WAVE   SWELL
                          AIR SEA DIR/SP/G            HT/PER HT/PER
                          (F)     (DEG/KT/KT) (MB)    (FT/S) (FT/S)
CLEARWATER BEACH           82 88   50/  6/  9 1017.5F
MIDDLE TAMPA BAY           80      90/  9/ 12 1017.1F
VENICE                     81 85   60/  7/  9   N/A

$$
FLZ066-069-070-075>078-162-262-165-265-221500-
SOUTHWEST FLORIDA AND KEYS
  
CITY           SKY/WX    TMP DP  RH WIND       PRES   REMARKS
PUNTA GORDA    FAIR      84  74  71 NE10      30.03F                  
FT MYERS       FAIR      82  76  81 E9        30.01R                  
SOUTHWEST INTL FAIR      81  76  84 NE7       30.01R                  
NAPLES         FAIR      81  76  84 NE8       30.01R                  
MARCO ISLAND   FAIR      83  76  79 MISG      30.02R                  
IMMOKALEE        N/A     84  77  79 NE7       30.01R                  
MARATHON         N/A     89  75  63 SE7       29.99  HX  99           
KEY WEST NAS   PTSUNNY   87  76  69 E5        29.99R HX  97           
KEY WEST INTL  FAIR      88  76  67 E8        30.00R HX  99           

STATION/POSITION SKY/WX   TEMP    WIND        PRES    WAVE   SWELL
                          AIR SEA DIR/SP/G            HT/PER HT/PER
                          (F)     (DEG/KT/KT) (MB)    (FT/S) (FT/S)
NAPLES                     80 86   80/  4/  8 1016.2R
26.0N   85.6W              83 85   70/  6/  8 1015.7S   1/ 8   2/ 8
DRY TORTUGAS               84     100/ 11/ 12 1016.0R
SAND KEY                   83                 1015.5R
SOMBRERO KEY               84      90/ 10/ 12 1014.8R
LONG KEY                   85 87  110/  9/ 11 1015.6R

$$
FLZ067-068-071>074-168-172>174-221500-
SOUTHEAST FLORIDA 
  
CITY           SKY/WX    TMP DP  RH WIND       PRES   REMARKS
W PALM BEACH   FAIR      84  77  79 CALM      30.01S                  
BOCA RATON     MOSUNNY   86  75  70 E6        30.00F HX  95           
FT LAUDER-EXEC FAIR      86  75  69 E5        30.00S HX  95           
FT LAUDERDALE  FAIR      86  75  69 E8        29.99S HX  95           
POMPANO BEACH  FAIR      87  74  64 NE7       30.00S HX  95           
PEMBROKE PINES FAIR      88  76  67 N7        30.01S HX  99           
OPA LOCKA      FAIR      82  77  84 E6        30.01R                  
MIAMI          FAIR      85  76  74 NE7       30.00R                  
WEST KENDALL   FAIR      87  75  67 E9        30.00R HX  96           
HOMESTEAD      NOT AVBL                                               

STATION/POSITION SKY/WX   TEMP    WIND        PRES    WAVE   SWELL
                          AIR SEA DIR/SP/G            HT/PER HT/PER
                          (F)     (DEG/KT/KT) (MB)    (FT/S) (FT/S)
PORT EVERGLADES            85      50/  6/  7 1015.8F
VIRGINIA KEY               85 88   40/  6/  8 1015.4R
LAKE WORTH                 82 86              1017.2F
FOWEY ROCKS                84 85   70/  9/ 10 1016.5R
SETTLEMENT POINT           84      70/  3/  4 1016.9R

$$